This is the latest recevied weather packets stored in our database for station/object DJ3LE. If no packets are shown the sender has not sent any weather packets the latest 10 day(s).
| Time | Temp. | Humidity | Pressure | Rain* | Wind** | Luminosity | Snow |
|---|---|---|---|---|---|---|---|
| 1777903344 | 16.11° C | 64% | 1011.9 hPa | - | - | 645 W/m² | - |
| 1777901543 | 15.56° C | 68% | 1012.1 hPa | - | - | 696 W/m² | - |
| 1777888043 | 13.89° C | 78% | 1011.8 hPa | - | - | 239 W/m² | - |
| 1777886242 | 13.33° C | 79% | 1011.4 hPa | - | - | 504 W/m² | - |
| 1777881741 | 12.22° C | 82% | 1011.1 hPa | - | - | 540 W/m² | - |
| 1777870941 | 10.56° C | 93% | 1009.1 hPa | - | - | 44 W/m² | - |
| 1777852039 | 13.33° C | 93% | 1006.8 hPa | - | - | 0 W/m² | - |
| 1777847539 | 13.89° C | 93% | 1007.1 hPa | - | - | 0 W/m² | - |
| 1777833138 | 14.44° C | 90% | 1006.4 hPa | - | - | 0 W/m² | - |
| 1777825942 | 18.33° C | 73% | 1006 hPa | - | - | 25 W/m² | - |
| 1777813341 | 20.56° C | 70% | 1008.6 hPa | - | - | 352 W/m² | - |
| 1777804341 | 17.22° C | 79% | 1010 hPa | - | - | 353 W/m² | - |
| 1777799840 | 14.44° C | 89% | 1010.5 hPa | - | - | 202 W/m² | - |
| 1777795340 | 12.22° C | 95% | 1010.4 hPa | - | - | 236 W/m² | - |
| 1777780039 | 10.56° C | 94% | 1010.6 hPa | - | - | 0 W/m² | - |
| 1777773739 | 10° C | 92% | 1011.3 hPa | - | - | 0 W/m² | - |
| 1777768338 | 10° C | 90% | 1012.1 hPa | - | - | 0 W/m² | - |
| 1777764738 | 10.56° C | 88% | 1012.1 hPa | - | - | 0 W/m² | - |
| 1777763838 | 10.56° C | 88% | 1012.2 hPa | - | - | 0 W/m² | - |
| 1777745837 | 17.78° C | 71% | 1012.9 hPa | - | - | 95 W/m² | - |
| 1777744937 | 17.78° C | 67% | 1012.8 hPa | - | - | 47 W/m² | - |
| 1777733236 | 25.56° C | 33% | 1013.4 hPa | - | - | 251 W/m² | - |
| 1777728741 | 26.11° C | 32% | 1013.9 hPa | - | - | 585 W/m² | - |
| 1777720641 | 24.44° C | 39% | 1015.1 hPa | - | - | 564 W/m² | - |
| 1777717940 | 23.33° C | 41% | 1015.5 hPa | - | - | 404 W/m² | - |
* Rain since midnight (hover to see other rain measurements)
** Current wind speed in m/s (hover to see current wind gust speed)